Flag for Brazil Weather past 2 weeks in Fortaleza, Ceará, Brazil

Now
77 °F

Passing clouds.


Feels Like: 79 °F
Forecast: 76 / 84 °F
Wind: 7 mph from East

Location: Fortaleza Aeropor-To

Current Time: Sep 3, 2015 at 11:31:55 PM

Latest Report: Sep 3, 2015 at 11:00 PM


Visibility: N/A

Pressure: 29.98 "Hg

Humidity: 79%

Dew point: 70 °F

Location of FortalezaLocation

Historic Weather in Fortaleza — Graph

°F

Fortaleza temperature yesterday

Maximum temperature yesterday: 82 °F (at 11:00 AM)
Minimum temperature yesterday: 73 °F (at 8:00 AM)
Average temperature yesterday: 79 °F

Past Weeks' High & Low Weather Summary

 TemperatureHumidityPressure
High86 °F (Aug 21, 12:00 PM)94% (Sep 2, 8:00 AM)30.07 "Hg (Sep 2, 8:00 AM)
Low73 °F (Aug 21, 4:00 AM)42% (Aug 22, 3:00 AM)29.80 "Hg (Aug 22, 3:00 PM)
Average80 °F67%29.94 "Hg
* Reported Aug 19 10:00 PM — Sep 3 10:00 PM, Fortaleza, Weather by CustomWeather, © 2015

Note: Actual official high and low records may vary slightly from our data, if they occured in-between our weather recording intervals... More about our weather records

Advertising

Fortaleza weather history for previous 24 hours

 ConditionsComfort  
Time TempWeatherWind HumidityBarometerVisibility
10:00 PM
Thu, Sep 3
79 °FPassing clouds.9 mph74%29.98 "HgN/A
9:00 PM79 °FPassing clouds.10 mph74%29.98 "HgN/A
8:00 PM79 °FPassing clouds.10 mph74%29.95 "HgN/A
7:00 PM79 °FPassing clouds.8 mph74%29.95 "HgN/A
6:00 PM79 °FPassing clouds.16 mph74%29.92 "HgN/A
5:00 PM81 °FPassing clouds.12 mph70%29.92 "HgN/A
4:00 PM81 °FScattered clouds.13 mph70%29.92 "HgN/A
3:00 PM82 °FPassing clouds.15 mph62%29.92 "HgN/A
2:00 PM84 °FPassing clouds.22 mph55%29.92 "HgN/A
1:00 PM84 °FPassing clouds.21 mph51%29.95 "HgN/A
12:00 PM84 °FPassing clouds.22 mph55%29.98 "HgN/A
11:00 AM84 °FScattered clouds.21 mph58%29.98 "HgN/A
10:00 AM82 °FPartly sunny.20 mph58%30.01 "HgN/A
9:00 AM79 °FPartly sunny.8 mph79%30.01 "HgN/A
8:00 AM77 °FPartly sunny.16 mph74%30.01 "HgN/A
7:00 AM79 °FPartly sunny.15 mph70%29.98 "HgN/A
6:00 AM77 °FPartly sunny.13 mph74%29.95 "HgN/A
5:00 AM77 °FPassing clouds.13 mph74%29.95 "HgN/A
4:00 AM77 °FPassing clouds.13 mph74%29.95 "HgN/A
3:00 AM77 °FPassing clouds.12 mph79%29.92 "HgN/A
2:00 AM77 °FPassing clouds.14 mph74%29.95 "HgN/A
1:00 AM77 °FPassing clouds.13 mph74%29.95 "HgN/A
12:00 AM77 °FPassing clouds.13 mph79%29.98 "HgN/A
11:00 PM
Wed, Sep 2
79 °FPassing clouds.13 mph70%29.98 "HgN/A
Weather by CustomWeather, © 2015

See weather overviewHow to use our weather pages